This is the latest recevied weather packets stored in our database for station/object OE-11331. If no packets are shown the sender has not sent any weather packets the latest 10 day(s).
| Time | Temp. | Humidity | Pressure | Rain* | Wind** | Luminosity | Snow |
|---|---|---|---|---|---|---|---|
| 1788109907 | 28.33° C | 42% | 1012.4 hPa | 0 mm | - | 76 W/m² | - |
| 1788109534 | 28.33° C | 42% | 1012.4 hPa | 0 mm | - | 108 W/m² | - |
| 1788108933 | 28.33° C | 42% | 1012.4 hPa | 0 mm | - | 141 W/m² | - |
| 1788108107 | 28.89° C | 42% | 1012.4 hPa | 0 mm | - | 173 W/m² | - |
| 1788107734 | 28.89° C | 41% | 1012.4 hPa | 0 mm | - | 195 W/m² | - |
| 1788107134 | 28.89° C | 42% | 1012.3 hPa | 0 mm | - | 227 W/m² | - |
| 1788106307 | 28.89° C | 43% | 1012.3 hPa | 0 mm | - | 260 W/m² | - |
| 1788105934 | 28.89° C | 41% | 1012.4 hPa | 0 mm | - | 292 W/m² | - |
| 1788105334 | 28.89° C | 41% | 1012.4 hPa | 0 mm | - | 325 W/m² | - |
| 1788104507 | 28.89° C | 40% | 1012.4 hPa | 0 mm | - | 357 W/m² | - |
| 1788104134 | 28.89° C | 41% | 1012.5 hPa | 0 mm | - | 379 W/m² | - |
| 1788103534 | 28.89° C | 40% | 1012.5 hPa | 0 mm | - | 411 W/m² | - |
| 1788102706 | 28.89° C | 40% | 1012.5 hPa | 0 mm | - | 433 W/m² | - |
| 1788102334 | 28.89° C | 41% | 1012.6 hPa | 0 mm | - | 465 W/m² | - |
| 1788101734 | 28.89° C | 42% | 1012.6 hPa | 0 mm | - | 465 W/m² | - |
| 1788100907 | 29.44° C | 42% | 1012.8 hPa | 0 mm | - | 520 W/m² | - |
| 1788100533 | 29.44° C | 43% | 1012.9 hPa | 0 mm | - | 541 W/m² | - |
| 1788099934 | 28.89° C | 42% | 1013 hPa | 0 mm | - | 574 W/m² | - |
| 1788099106 | 28.89° C | 41% | 1013.1 hPa | 0 mm | - | 584 W/m² | - |
| 1788098734 | 28.89° C | 41% | 1013.3 hPa | 0 mm | - | 606 W/m² | - |
| 1788098133 | 28.89° C | 42% | 1013.4 hPa | 0 mm | - | 628 W/m² | - |
| 1788097307 | 28.33° C | 41% | 1013.6 hPa | 0 mm | - | 649 W/m² | - |
| 1788096934 | 28.33° C | 42% | 1013.6 hPa | 0 mm | - | 671 W/m² | - |
| 1788096333 | 28.33° C | 42% | 1013.7 hPa | 0 mm | - | 682 W/m² | - |
| 1788095507 | 28.33° C | 44% | 1013.8 hPa | 0 mm | - | 703 W/m² | - |
* Rain latest hour (hover to see other rain measurements)
** Current wind speed in m/s (hover to see current wind gust speed)